Location: Boiro
(42.6475°N, 8.8834°W)
Time: 06:56:11
(UTC+02:00)

First-Move - Visible Passes

Search period start: 16 April 2024 00:00
Search period end: 26 April 2024 00:00
Orbit: 541 x 608 km, 97.7° (Epoch: 15 April)

Date Brightness Start Highest point End Pass type
(mag) Time Alt. Az. Time Alt. Az. Time Alt. Az.
16 Apr ? 05:39:23 10° NNE 05:43:27 45° E 05:45:34 25° SSE visible
16 Apr ? 07:15:32 10° NNW 07:18:19 17° WNW 07:21:06 10° WSW visible
17 Apr ? 05:42:31 10° NNE 05:46:39 49° E 05:48:55 24° SSE visible
17 Apr ? 07:18:50 10° NNW 07:21:28 16° WNW 07:24:06 10° WSW visible
18 Apr ? 05:45:38 10° NNE 05:49:48 53° E 05:52:12 23° SSE visible
19 Apr ? 05:48:42 10° NNE 05:52:54 58° E 05:55:27 23° S visible
20 Apr ? 05:51:44 10° NNE 05:55:57 63° E 05:58:38 22° S visible
21 Apr ? 05:54:42 10° NNE 05:58:57 68° E 06:01:47 20° S visible
22 Apr ? 05:57:38 10° NNE 06:01:54 73° ESE 06:04:52 19° S visible
23 Apr ? 06:00:32 10° NNE 06:04:48 79° ESE 06:07:54 18° S visible
24 Apr ? 06:03:23 10° NNE 06:07:39 85° E 06:10:53 17° SSW visible
25 Apr ? 06:06:11 10° NNE 06:10:28 89° WNW 06:13:49 16° SSW visible
